Погода Докшицы

Погода Докшицы : погода сейчас, прогноз погоды и архив. Всё, что Вы хотите узнать о погоде Докшицы!

Поиск расширенной информации на нашем сайте:

Другие новости

Новости СМИ2

Главная страница сайта

Новости сайта

03.07.2017

Напоминаем, что на нашем специализированном сайте Метеоцентр.Азия вы можете получить высокодетализированные автоматические прогнозы погоды по пунктам России, СНГ и мира в авиационном формате (включающие направление и скорость ветра, видимость, явления погоды, количество и форму облачности, нижнюю и верхнюю границу облачности).

Рекомендуем: Изучение английского на www.newmetod.ru

Погода Докшицы - сегодня

Время (UTC), дата Ветер
(°,м/с) 
Видим.   Явления Облачность Т
(°С)
Тd
(°С)
f(%) Тe
(°С)
Pmin
(гПа)
dP
(гПа)
Po
(мм)
O2
(г/м3)
Тmin Tmax R s Состояние
почвы
06 14.10.18 180 (Ю) 0800 м  туман  ясно 
+5.9 +5.8 99 +5  1031.6  0.4  756  297  +3         
09 14.10.18 180 (Ю) 17000 м  {туман}  3/0 верхняя 
[Ci fib]
+14.5 +11.1 80 +17  1030.8  756  287           
12 14.10.18 190 (Ю) 20000 м  {туман}  ясно 
+18.2 +9.8 58 +20  1029.3  -1.2  755  283           
15 14.10.18 тихо ()   20000 м    ясно 
+14.3 +11.5 83 +17  1028.4  -1.2  754  286           
18 14.10.18 180 (Ю) 9000 м  дымка  ясно 
+9.3 +8.6 95 +10  1029  0.1  754  292    +18.4       
06 15.10.18 160 (Ю) 18000 м    3/0 верхняя 
[Ci fib]
+7.3 +3.4 76 +7  1028.6  754  295  +5         
09 15.10.18 200 (Ю) 20000 м    3/0 верхняя 
[Ci fib]
+14.7 +5.5 54 +15  1028.3  0.3  754  287           
12 15.10.18 200 (Ю) 20000 м    5/0 верхняя 
[Ci fib]
+17.3 +4.8 44 +17  1027.2  -0.8  753  285           
15 15.10.18 140 (ЮВ) 20000 м    8/0 верхняя 
[Ci fib]
+14 +6.4 60 +14  1026.8  -0.7  753  287           
18 15.10.18 160 (Ю) 20000 м    8/0 верхняя 
[Ci fib]
+8.6 +5.9 83 +7  1027  -0.3  752  293    +17.8       
06 16.10.18 160 (Ю) 19000 м    5/0 верхняя 
[Ci fib]
+7.9 +4.4 79 +7  1025.9  752  294  +5.9         
09 16.10.18 190 (Ю) 16000 м    4/0 верхняя 
[Ci fib]
+15 +6.9 58 +15  1025  -0.3  751  286           
12 16.10.18 200 (Ю) 20000 м    3/0 средняя 
[Ac und]
+18.6 +5.7 43 +19  1024.1  -0.5  751  282           
15 16.10.18 180 (Ю) 20000 м    3/0 верхняя 
[Ci fib]
+14.1 +6.9 62 +15  1024.2  -0.3  751  287           
18 16.10.18 170 (Ю) 20000 м    ясно 
+9.2 +6.1 81 +10  1024.9  0.2  751  292    +19.3       
06 17.10.18 150 (ЮВ) 11000 м    ясно 
+7.5 +5.6 88 +8  1025.1  0.3  751  294  +5.4         
09 17.10.18 150 (ЮВ) 20000 м    ясно 
+15.1 +9.1 67 +16  1024.9  0.5  751  285           
12 17.10.18 200 (Ю) 20000 м    ясно 
+19.5 +8 47 +20  1023.7  -0.8  751  281           
15 17.10.18 180 (Ю) 20000 м    ясно 
+13 +8.4 74 +13  1023.8  -0.5  750  287           
18 17.10.18 170 (Ю) 14000 м    ясно 
+9.2 +6.7 84 +10  1024.5  0.3  751  291    +19.8       
06 18.10.18 140 (ЮВ) 4700 м  дымка  ясно 
+4.7 +4.4 98 +6  1023  -0.9  749  296  +2.5         
09 18.10.18 200 (Ю) 13000 м    3/0 верхняя 
[Ci fib]
+15.9 +10.8 72 +19  1021.2  -0.8  749  283           
12 18.10.18 190 (Ю) 20000 м    ясно 
+20.5 +11.1 55 +23  1018.9  -1.8  747  278           
15 18.10.18 180 (Ю) 16000 м    ясно 
+15.3 +10.4 73 +18  1018.6  -0.8  747  283           
18 18.10.18 190 (Ю) 11000 м    ясно 
+10.4 +8.7 89 +11  1018.5  -0.5  746  288    +20.8       
Время (UTC), дата Ветер
(°,м/с) 
Видим.   Явления Облачность Т
(°С)
Тd
(°С)
f(%) Тe
(°С)
Pmin
(гПа)
dP
(гПа)
Po
(мм)
O2
(г/м3)
Тmin Tmax R s Состояние
почвы

Для получения пояснительной информации подведите курсор к названию столбца.

ПОГОДА Докшицы - архив

Всё, что Вы хотите узнать о погоде Докшицы - удобно и подробно!

Выберите нужную дату (начиная с 1 января 2015* года) и нажмите кнопку "Найти".
Будут отображены архивные сводки погоды по пункту Докшицы, начиная с указанной даты.


Отображать данные в формате CSV (для использования в таблицах Excel)


Внимание! Наш архив погоды предназначен исключительно для личного некоммерческого использования в познавательных целях. Если Вам необходимы официальные справки о состоянии погоды (для производственных, юридических, коммерческих и т.п. целей), обращайтесь в органы Росгидромета.

*Примечание: данная дата относится к архиву по метеостанциям СССР (Россия, СНГ, Балтия).
Архив по метеостанциям Зарубежной Европы и Азии (кроме Китая) хранится 10 дней, по другим регионам земного шара (Китай, Африка, Америка, Австралия, Океания) - 1 день.

Докшицы - район местоположения метеостанции


Название, широта, долгота, высота метеостанции:
Докшицы 54.9°ш. 27.8°д. 193 м над ур. моря [Беларусь]

Дополнительная информация

В oтличие oт бoльшинства пoгoдных сайтoв мы публикуем пoдрoбную метеoинфoрмацию в детальнoм прoфессиoнальнoм фoрмате.

Характеристики температуры и влажнoсти вoздуха измеряются на высoте 2 м в тени вдали oт зданий и деревьев.
Скoрoсть ветра измеряется на высoте 10 м (на урoвне рoста челoвека скoрoсть ветра ниже в 1.5-2 раза). Если метеoстанция нахoдится в гoрoде или в лесу, тo скoрoсть ветра занижена на 2-4 м/с пo сравнению с oткрытым местoм. Скoрoсть ветра над акватoриями крупных рек и oзёр, а также на вершинах хoлмoв на 2-5 м/с выше, чем в oбычных услoвиях.
Атмoсфернoе давление в разных тoчках местнoсти мoжет значительнo oтличаться oт давления на метеoстанции, в зависимoсти oт услoвий рельефа (при пoдъёме на 10 м давление пoнижается примернo на 1 мм рт.ст.).